Find Starlink 32006

NORAD ID: 60029 Int'l Des: 2024-111 Owner: SPXS Country: US Constellation: starlink operational
LEOCIRCULAR

Current View

Loading 3D Globe...

About Starlink 32006

Starlink 32006 (NORAD 60029) is a starlink constellation satellite (v2 mini) launched Jun 8, 2024 by SPXS of US. It operates in LEO, CIRCULAR orbit with a mass of 730.00 kg.

About Starlink 32006

Description loading...

Upcoming Passes

Passes for default location (London). Set your location on the main map for personalized predictions.

Altitude History

Loading altitude history...

Two-Line Element Set

1 60029U 24111P 26171.43085865 .00010204 00000-0 35685-3 0 9999
2 60029 53.1615 318.4046 0001646 120.1086 240.0078 15.30136546114765
Epoch: Jun 20, 2026 • Age: 13 hours

Current Status

Altitude 474.7 km
Velocity 7.63 km/s
Sub-Earth Point 11.00°N, 135.75°W
Launch Date Jun 8, 2024
Age 2 years
Type internet

Technical Details

Classification Payload
Mass 730.00 kg
Dry Mass 700.00 kg
Total Mass 730.00 kg
Length 0.30 m
Diameter 4.10 m
Span 29.00 m
Shape Box + pan
Manufacturer SPXS
Bus Type Starlink V2M
Phase Status In Orbit
Owner/State SPXS/US

Most Searched